DW4505 Weather Reports


time (UTC)temp
F
wind
direction
speed
knots
gust
knots
rain 1hr
in
rain 24hr
in
rain mn
in
humidity
%
barometer
mb
20260505230508 72 130 1.7 7.0 0.00 0.00 0.00 66 1014.9
20260505230008 72 136 1.7 7.8 0.00 0.00 0.00 65 1014.9
20260505225508 72 168 2.6 9.6 0.00 0.00 0.00 65 1015.1
20260505225009 73 167 1.7 9.6 0.00 0.00 0.00 64 1015.0
20260505224508 73 152 0.9 4.3 0.00 0.00 0.00 64 1015.0
20260505224009 73 147 1.7 5.2 0.00 0.00 0.00 64 1014.9
20260505223508 73 179 1.7 6.1 0.00 0.00 0.00 63 1015.1
20260505223009 73 186 1.7 7.0 0.00 0.00 0.00 62 1015.1
20260505222509 74 149 2.6 10.4 0.00 0.00 0.00 61 1015.1
20260505222008 74 157 2.6 10.4 0.00 0.00 0.00 60 1014.9
20260505221509 74 182 1.7 7.0 0.00 0.00 0.00 61 1014.9
20260505221009 74 157 1.7 6.1 0.00 0.00 0.00 62 1014.9
20260505220508 74 192 1.7 8.7 0.00 0.00 0.00 61 1014.9
20260505220009 75 185 1.7 9.6 0.00 0.00 0.00 60 1015.0
20260505215508 75 148 2.6 9.6 0.00 0.00 0.00 60 1015.0
20260505215008 76 157 2.6 7.8 0.00 0.00 0.00 59 1015.1
20260505214509 76 177 1.7 7.8 0.00 0.00 0.00 59 1015.1
20260505214008 76 162 1.7 7.0 0.00 0.00 0.00 59 1015.0
20260505213509 77 132 2.6 7.0 0.00 0.00 0.00 58 1015.0
20260505213008 77 134 2.6 7.8 0.00 0.00 0.00 57 1014.8
20260505212008 78 163 2.6 7.8 0.00 0.00 0.00 57 1014.9
20260505211509 78 166 2.6 9.6 0.00 0.00 0.00 57 1014.9
20260505211009 78 174 1.7 9.6 0.00 0.00 0.00 56 1014.9
20260505210508 78 152 2.6 10.4 0.00 0.00 0.00 56 1015.0
20260505205509 78 155 1.7 6.1 0.00 0.00 0.00 56 1015.1
20260505205010 78 150 2.6 11.3 0.00 0.00 0.00 55 1015.0
20260505204009 79 129 1.7 7.0 0.00 0.00 0.00 55 1015.1
20260505203509 79 135 1.7 7.0 0.00 0.00 0.00 54 1015.2
20260505203008 79 167 1.7 5.2 0.00 0.00 0.00 54 1015.0
20260505202510 79 194 1.7 9.6 0.00 0.00 0.00 54 1014.9
20260505202009 79 183 1.7 9.6 0.00 0.00 0.00 54 1014.9
20260505201510 79 136 2.6 8.7 0.00 0.00 0.00 54 1015.0
20260505201008 79 127 2.6 7.8 0.00 0.00 0.00 54 1015.0
20260505200508 79 144 2.6 7.8 0.00 0.00 0.00 55 1015.0
20260505200009 79 144 2.6 6.1 0.00 0.00 0.00 55 1015.1
20260505195509 79 117 2.6 7.8 0.00 0.00 0.00 55 1015.1
20260505195008 79 128 1.7 7.8 0.00 0.00 0.00 56 1015.1
20260505194509 79 134 2.6 9.6 0.00 0.00 0.00 53 1015.3
20260505194009 79 199 2.6 9.6 0.00 0.00 0.00 54 1015.4
20260505193509 79 195 2.6 9.6 0.00 0.00 0.00 53 1015.6
20260505193009 80 141 2.6 7.0 0.00 0.00 0.00 53 1015.6
20260505192509 80 146 1.7 7.8 0.00 0.00 0.00 53 1015.7
20260505192008 80 152 1.7 9.6 0.00 0.00 0.00 53 1015.8
20260505191008 79 122 1.7 10.4 0.00 0.00 0.00 55 1015.9
20260505190508 79 129 2.6 10.4 0.00 0.00 0.00 53 1016.0
20260505190008 80 148 1.7 7.8 0.00 0.00 0.00 53 1015.9
20260505185508 80 151 1.7 8.7 0.00 0.00 0.00 54 1015.9
20260505185009 80 176 1.7 8.7 0.00 0.00 0.00 53 1015.9
20260505184508 80 145 1.7 8.7 0.00 0.00 0.00 54 1015.9
20260505184008 80 128 2.6 8.7 0.00 0.00 0.00 53 1015.9
20260505183508 80 129 2.6 11.3 0.00 0.00 0.00 54 1015.9
20260505183009 79 145 2.6 11.3 0.00 0.00 0.00 54 1015.8
20260505182509 80 163 1.7 6.1 0.00 0.00 0.00 53 1015.8
20260505181009 80 160 1.7 6.1 0.00 0.00 0.00 53 1016.2
20260505180509 80 139 1.7 6.1 0.00 0.00 0.00 52 1016.3
20260505180008 80 156 0.9 6.1 0.00 0.00 0.00 53 1016.3
20260505175509 80 185 0.9 7.0 0.00 0.00 0.00 53 1016.3
20260505175008 79 188 1.7 7.0 0.00 0.00 0.00 53 1016.3
20260505174508 79 214 1.7 7.0 0.00 0.00 0.00 54 1016.3
20260505174008 79 141 1.7 8.7 0.00 0.00 0.00 54 1016.3
20260505172509 79 171 1.7 7.0 0.00 0.00 0.00 55 1016.4
20260505172008 78 155 2.6 10.4 0.00 0.00 0.00 54 1016.5
20260505165509 78 130 0.9 4.3 0.00 0.00 0.00 56 1016.7
20260505165009 78 135 1.7 4.3 0.00 0.00 0.00 58 1016.8
20260505164509 78 142 0.9 5.2 0.00 0.00 0.00 58 1016.8
20260505164009 77 148 0.9 5.2 0.00 0.00 0.00 60 1016.9
20260505163508 77 181 1.7 7.0 0.00 0.00 0.00 61 1017.0
20260505163009 77 199 1.7 7.0 0.00 0.00 0.00 59 1017.0
20260505162509 78 186 0.9 3.5 0.00 0.00 0.00 59 1017.0
20260505162010 78 176 0.9 4.3 0.00 0.00 0.00 59 1017.0
20260505161508 77 203 1.7 7.0 0.00 0.00 0.00 59 1017.1
20260505161008 77 187 1.7 7.0 0.00 0.00 0.00 59 1017.2
20260505160509 77 184 0.9 4.3 0.00 0.00 0.00 60 1017.2
20260505153008 76 104 1.7 6.1 0.00 0.00 0.00 60 1017.4
20260505152512 76 140 0.9 6.1 0.00 0.00 0.00 61 1017.4
20260505152009 76 172 0.9 5.2 0.00 0.00 0.00 60 1017.5
20260505151509 76 207 0.9 4.3 0.00 0.00 0.00 62 1017.5
20260505151008 75 240 0.9 4.3 0.00 0.00 0.00 61 1017.4
20260505150510 75 222 0.0 2.6 0.00 0.00 0.00 63 1017.4
20260505140509 73 186 1.7 5.2 0.00 0.00 0.00 67 1017.4
20260505125009 67 187 0.0 0.9 0.00 0.00 0.00 80 1017.3
20260505124509 66 0 0.0 0.0 0.00 0.00 0.00 81 1017.2
20260505123509 64 219 0.0 1.7 0.00 0.00 0.00 83 1017.3
20260505122508 62 122 0.0 1.7 0.00 0.00 0.00 88 1017.2
20260505122009 61 0 0.0 0.0 0.00 0.00 0.00 90 1017.3
20260505121509 60 0 0.0 0.0 0.00 0.00 0.00 92 1017.2
20260505121010 58 0 0.0 0.0 0.00 0.00 0.00 94 1017.1
20260505120009 56 0 0.0 0.0 0.00 0.00 0.00 95 1017.0
20260505115509 55 0 0.0 0.0 0.00 0.00 0.00 95 1017.0
20260505115008 54 0 0.0 0.0 0.00 0.00 0.00 95 1017.0
20260505114508 54 0 0.0 0.0 0.00 0.00 0.00 95 1017.0
20260505114009 53 0 0.0 0.0 0.00 0.00 0.00 95 1017.0
20260505113509 53 0 0.0 0.0 0.00 0.00 0.00 95 1016.9
20260505113009 52 0 0.0 0.0 0.00 0.00 0.00 94 1016.9
20260505112508 52 0 0.0 0.0 0.00 0.00 0.00 94 1016.8
20260505111009 52 0 0.0 0.0 0.00 0.00 0.00 94 1016.5
20260505110509 52 0 0.0 0.0 0.00 0.00 0.00 94 1016.5
20260505102009 52 0 0.0 0.0 0.00 0.00 0.00 94 1016.1
20260505101509 52 0 0.0 0.0 0.00 0.00 0.00 93 1016.0
20260505101010 52 0 0.0 0.0 0.00 0.00 0.00 93 1016.0
20260505100509 52 0 0.0 0.0 0.00 0.00 0.00 93 1016.0
20260505100009 52 0 0.0 0.0 0.00 0.00 0.00 93 1015.9
20260505095509 52 0 0.0 0.0 0.00 0.00 0.00 93 1015.8
20260505095010 52 0 0.0 0.0 0.00 0.00 0.00 93 1015.8
20260505094509 52 0 0.0 0.0 0.00 0.00 0.00 93 1015.8
20260505094009 52 0 0.0 0.0 0.00 0.00 0.00 93 1015.7
20260505093509 52 0 0.0 0.0 0.00 0.00 0.00 93 1015.7
20260505093008 52 0 0.0 0.0 0.00 0.00 0.00 93 1015.7
20260505092508 52 0 0.0 0.0 0.00 0.00 0.00 93 1015.7
20260505092008 52 0 0.0 0.0 0.00 0.00 0.00 93 1015.6
20260505091508 52 0 0.0 0.0 0.00 0.00 0.00 93 1015.6
20260505091008 52 0 0.0 0.0 0.00 0.00 0.00 93 1015.6
20260505090508 52 0 0.0 0.0 0.00 0.00 0.00 93 1015.6
20260505090008 52 0 0.0 0.0 0.00 0.00 0.00 93 1015.5
20260505085509 52 0 0.0 0.0 0.00 0.00 0.00 93 1015.4
20260505085010 52 0 0.0 0.0 0.00 0.00 0.00 93 1015.4
20260505084508 52 0 0.0 0.0 0.00 0.00 0.00 93 1015.3
20260505084008 52 0 0.0 0.0 0.00 0.00 0.00 93 1015.3
20260505083008 52 0 0.0 0.0 0.00 0.00 0.00 93 1015.2
20260505082508 53 0 0.0 0.0 0.00 0.00 0.00 92 1015.3
20260505082009 53 0 0.0 0.0 0.00 0.00 0.00 92 1015.3
20260505081509 53 0 0.0 0.0 0.00 0.00 0.00 92 1015.3
20260505080508 53 0 0.0 0.0 0.00 0.00 0.00 92 1015.3
20260505080009 53 0 0.0 0.0 0.00 0.00 0.00 92 1015.2
20260505075509 53 0 0.0 0.0 0.00 0.00 0.00 92 1015.2
20260505075010 53 0 0.0 0.0 0.00 0.00 0.00 92 1015.3
20260505074509 53 0 0.0 0.0 0.00 0.00 0.00 92 1015.3
20260505073508 53 0 0.0 0.0 0.00 0.00 0.00 92 1015.2
20260505073008 53 0 0.0 0.0 0.00 0.00 0.00 92 1015.2
20260505072509 53 0 0.0 0.0 0.00 0.00 0.00 92 1015.3
20260505072009 53 0 0.0 0.0 0.00 0.00 0.00 91 1015.3
20260505071510 54 0 0.0 0.0 0.00 0.00 0.00 91 1015.2
20260505071009 54 0 0.0 0.0 0.00 0.00 0.00 91 1015.3
20260505070510 54 0 0.0 0.0 0.00 0.00 0.00 91 1015.2
20260505070009 54 0 0.0 0.0 0.00 0.00 0.00 91 1015.2
20260505065510 54 0 0.0 0.0 0.00 0.00 0.00 91 1015.3
20260505065008 54 0 0.0 0.0 0.00 0.00 0.00 91 1015.3
20260505064509 54 0 0.0 0.0 0.00 0.00 0.00 91 1015.3
20260505064008 54 0 0.0 0.0 0.00 0.00 0.00 91 1015.3
20260505063509 54 0 0.0 0.0 0.00 0.00 0.00 90 1015.2
20260505063008 54 0 0.0 0.0 0.00 0.00 0.00 91 1015.3
20260505062509 54 0 0.0 0.0 0.00 0.00 0.00 90 1015.3
20260505062009 54 0 0.0 0.0 0.00 0.00 0.00 90 1015.4
20260505061509 54 0 0.0 0.0 0.00 0.00 0.00 90 1015.4
20260505061008 54 0 0.0 0.0 0.00 0.00 0.00 90 1015.5
20260505060509 54 0 0.0 0.0 0.00 0.00 0.00 90 1015.5
20260505060009 54 0 0.0 0.0 0.00 0.00 0.00 90 1015.6
20260505055509 55 0 0.0 0.0 0.00 0.00 0.00 89 1015.6
20260505055009 55 0 0.0 0.0 0.00 0.00 0.00 89 1015.7
20260505054508 55 0 0.0 0.0 0.00 0.00 0.00 89 1015.7
20260505054009 55 0 0.0 0.0 0.00 0.00 0.00 89 1015.8
20260505053509 55 0 0.0 0.0 0.00 0.00 0.00 89 1015.9
20260505053009 55 0 0.0 0.0 0.00 0.00 0.00 89 1016.0
20260505052509 55 0 0.0 0.0 0.00 0.00 0.00 89 1016.0
20260505051508 55 0 0.0 0.0 0.00 0.00 0.00 88 1016.0
20260505051009 55 0 0.0 0.0 0.00 0.00 0.00 88 1016.0
20260505050509 56 0 0.0 0.0 0.00 0.00 0.00 87 1016.1
20260505041509 57 0 0.0 0.0 0.00 0.00 0.00 85 1015.9
20260505041010 57 0 0.0 0.0 0.00 0.00 0.00 84 1015.9
20260505040509 57 0 0.0 0.0 0.00 0.00 0.00 84 1015.9
20260505040011 57 0 0.0 0.0 0.00 0.00 0.00 84 1016.0
20260505035509 58 0 0.0 0.0 0.00 0.00 0.00 83 1016.0
20260505035010 58 0 0.0 0.0 0.00 0.00 0.00 83 1016.0
20260505034509 58 0 0.0 0.0 0.00 0.00 0.00 83 1016.0
20260505034009 58 0 0.0 0.0 0.00 0.00 0.00 82 1015.9
20260505033509 58 0 0.0 0.0 0.00 0.00 0.00 81 1015.9
20260505033009 59 0 0.0 0.0 0.00 0.00 0.00 81 1016.0
20260505032509 59 0 0.0 0.0 0.00 0.00 0.00 81 1016.0
20260505032009 59 0 0.0 0.0 0.00 0.00 0.00 80 1015.9
20260505031508 60 0 0.0 0.0 0.00 0.00 0.00 80 1016.0
20260505031008 60 0 0.0 0.0 0.00 0.00 0.00 79 1016.1
20260505030010 60 0 0.0 0.0 0.00 0.00 0.00 78 1016.1
20260505025509 61 0 0.0 0.0 0.00 0.00 0.00 77 1016.1
20260505025008 61 0 0.0 0.0 0.00 0.00 0.00 77 1016.1
20260505024509 61 0 0.0 0.0 0.00 0.00 0.00 77 1016.1
20260505023509 62 0 0.0 0.0 0.00 0.00 0.00 76 1016.1
20260505022011 63 0 0.0 0.0 0.00 0.00 0.00 74 1016.1
20260505021509 63 0 0.0 0.0 0.00 0.00 0.00 73 1016.1
20260505020509 63 203 0.0 0.9 0.00 0.00 0.00 72 1016.1
20260505020009 64 203 0.0 0.9 0.00 0.00 0.00 71 1016.0
20260505015509 64 0 0.0 0.0 0.00 0.00 0.00 71 1016.0
20260505015009 64 0 0.0 0.0 0.00 0.00 0.00 70 1016.0
20260505014509 64 0 0.0 0.0 0.00 0.00 0.00 70 1015.9
20260505014010 64 138 0.0 1.7 0.00 0.00 0.00 70 1015.9
20260505013509 65 175 0.0 2.6 0.00 0.00 0.00 69 1015.9
20260505013009 65 185 0.0 2.6 0.00 0.00 0.00 69 1015.8
20260505012510 65 149 0.0 1.7 0.00 0.00 0.00 69 1015.7
20260505012011 65 134 0.0 0.9 0.00 0.00 0.00 69 1015.6
20260505011509 65 170 0.0 0.9 0.00 0.00 0.00 68 1015.5
20260505011009 65 141 0.9 3.5 0.00 0.00 0.00 68 1015.4
20260505010509 65 137 0.0 3.5 0.00 0.00 0.00 68 1015.4
20260505010009 66 115 0.0 1.7 0.00 0.00 0.00 67 1015.4
20260505005508 66 124 0.0 1.7 0.00 0.00 0.00 67 1015.3
20260505005009 66 137 0.0 1.7 0.00 0.00 0.00 67 1015.3
20260505004509 66 140 0.0 1.7 0.00 0.00 0.00 66 1015.3
20260505004010 66 155 0.0 1.7 0.00 0.00 0.00 65 1015.2
20260505003009 67 208 0.0 3.5 0.00 0.00 0.00 64 1015.1
20260505002009 67 202 0.9 3.5 0.00 0.00 0.00 63 1015.0
20260505001508 68 203 0.9 3.5 0.00 0.00 0.00 63 1015.0
20260505001009 68 173 0.9 3.5 0.00 0.00 0.00 62 1015.0
20260505000510 68 174 0.9 3.5 0.00 0.00 0.00 62 1015.0
20260505000009 68 189 0.9 7.0 0.00 0.00 0.00 61 1015.0
20260504235509 68 170 0.9 7.0 0.00 0.00 0.00 61 1014.9
20260504235010 69 137 0.9 4.3 0.00 0.00 0.00 60 1014.8
20260504234508 69 139 0.9 4.3 0.00 0.00 0.00 60 1014.7
20260504234010 69 136 0.9 5.2 0.00 0.00 0.00 59 1014.7
20260504233009 70 144 1.7 9.6 0.00 0.00 0.00 58 1014.7
20260504232509 70 138 1.7 9.6 0.00 0.00 0.00 58 1014.7
20260504232008 70 139 1.7 5.2 0.00 0.00 0.00 58 1014.6
20260504231008 71 146 1.7 5.2 0.00 0.00 0.00 57 1014.4